EDW336H LSZH-LGSR

Flight info

Callsign EDW336H
Flight time 2h 24m
Altitude 37000
Route DEGES Z2 XEBIX L607 ELMEM N606 GIRIS DCT NIVAS DCT PEVAL DCT PETAK DCT PINDO UL607 GIVIS
Aircraft A320/M-SDE3FGHIRWY/LB1

Departure

Time 2026-05-08 12:16
Airport Zürich Airport (LSZH)

Arrival

Time 2026-05-08 14:40
Airport Santorini International Airport (LGSR)
Time Latitude Longitude Altitude Speed Heading
2026-05-08 11:36 47.45432 8.55634 1415 ft 0 kts 186°
2026-05-08 12:09 47.45433 8.55634 1407 ft 1 kts 186°
2026-05-08 12:09 47.45457 8.55640 1413 ft 4 kts 190°
2026-05-08 12:10 47.45482 8.55642 1409 ft 2 kts 162°
2026-05-08 12:10 47.45503 8.55629 1414 ft 4 kts 144°
2026-05-08 12:10 47.45519 8.55602 1408 ft 3 kts 99°
2026-05-08 12:10 47.45519 8.55595 1408 ft 0 kts 96°
2026-05-08 12:12 47.45515 8.55645 1410 ft 17 kts 97°
2026-05-08 12:12 47.45525 8.55824 1415 ft 18 kts 38°
2026-05-08 12:12 47.45601 8.55849 1409 ft 15 kts
2026-05-08 12:12 47.45632 8.55972 1414 ft 16 kts 96°
2026-05-08 12:13 47.45618 8.56144 1415 ft 18 kts 97°
2026-05-08 12:13 47.45604 8.56336 1413 ft 20 kts 96°
2026-05-08 12:13 47.45589 8.56545 1419 ft 21 kts 97°
2026-05-08 12:13 47.45574 8.56764 1421 ft 22 kts 95°
2026-05-08 12:14 47.45566 8.56951 1421 ft 17 kts 81°
2026-05-08 12:14 47.45635 8.57025 1425 ft 11 kts
2026-05-08 12:14 47.45664 8.56981 1424 ft 8 kts 275°
2026-05-08 12:14 47.45664 8.56973 1424 ft 0 kts 275°
2026-05-08 12:15 47.45671 8.56891 1423 ft 33 kts 275°
2026-05-08 12:15 47.45723 8.56150 1415 ft 107 kts 276°
2026-05-08 12:15 47.45822 8.54773 1401 ft 160 kts 276°
2026-05-08 12:15 47.45929 8.53067 1835 ft 169 kts 277°
2026-05-08 12:16 47.46048 8.51331 2563 ft 170 kts 278°
2026-05-08 12:16 47.46175 8.49581 3207 ft 175 kts 277°
2026-05-08 12:16 47.46115 8.47693 3571 ft 197 kts 248°
2026-05-08 12:16 47.45396 8.45845 3809 ft 220 kts 239°
2026-05-08 12:17 47.44601 8.43819 4314 ft 231 kts 241°
2026-05-08 12:17 47.43838 8.41760 5226 ft 227 kts 242°
2026-05-08 12:17 47.43103 8.39702 6013 ft 227 kts 243°
2026-05-08 12:17 47.42181 8.37834 6769 ft 227 kts 218°
2026-05-08 12:18 47.40733 8.36939 7519 ft 230 kts 185°
2026-05-08 12:18 47.39171 8.37369 8195 ft 234 kts 152°
2026-05-08 12:18 47.38010 8.39055 8850 ft 242 kts 118°
2026-05-08 12:18 47.37700 8.41492 9533 ft 249 kts 82°
2026-05-08 12:19 47.38430 8.43795 10177 ft 254 kts 48°
2026-05-08 12:19 47.39675 8.45678 10791 ft 257 kts 45°
2026-05-08 12:19 47.40942 8.47559 11452 ft 260 kts 45°
2026-05-08 12:19 47.42225 8.49461 12112 ft 263 kts 45°
2026-05-08 12:20 47.43525 8.51387 12778 ft 266 kts 45°
2026-05-08 12:20 47.44827 8.53341 13437 ft 269 kts 48°
2026-05-08 12:20 47.45927 8.55594 13952 ft 277 kts 68°
2026-05-08 12:20 47.46419 8.58433 14122 ft 297 kts 85°
2026-05-08 12:21 47.46516 8.61585 14262 ft 318 kts 92°
2026-05-08 12:21 47.46463 8.64967 14391 ft 340 kts 93°
2026-05-08 12:21 47.46398 8.68563 14522 ft 360 kts 92°
2026-05-08 12:21 47.46390 8.72323 14904 ft 370 kts 90°
2026-05-08 12:22 47.46454 8.76158 15460 ft 375 kts 89°
2026-05-08 12:22 47.46568 8.80025 16071 ft 378 kts 90°
2026-05-08 12:22 47.46438 8.83906 16655 ft 380 kts 99°
2026-05-08 12:22 47.45940 8.87751 17244 ft 382 kts 103°
2026-05-08 12:23 47.45389 8.91605 17803 ft 386 kts 103°
2026-05-08 12:23 47.44823 8.95499 18406 ft 389 kts 103°
2026-05-08 12:23 47.44253 8.99430 18889 ft 393 kts 103°
2026-05-08 12:23 47.43679 9.03394 19387 ft 396 kts 103°
2026-05-08 12:24 47.43106 9.07336 19873 ft 400 kts 103°
2026-05-08 12:24 47.42514 9.11425 20380 ft 403 kts 103°
2026-05-08 12:24 47.41939 9.15440 20863 ft 407 kts 102°
2026-05-08 12:24 47.41643 9.19622 21343 ft 413 kts 92°
2026-05-08 12:25 47.41840 9.23877 21820 ft 418 kts 81°
2026-05-08 12:25 47.42452 9.28090 22290 ft 422 kts 78°
2026-05-08 12:25 47.43107 9.32328 22761 ft 425 kts 78°
2026-05-08 12:25 47.43758 9.36610 23213 ft 429 kts 78°
2026-05-08 12:26 47.44409 9.40936 23666 ft 432 kts 78°
2026-05-08 12:26 47.45063 9.45286 24035 ft 436 kts 78°
2026-05-08 12:26 47.45721 9.49670 24378 ft 439 kts 78°
2026-05-08 12:26 47.46385 9.54094 24716 ft 442 kts 78°
2026-05-08 12:27 47.46962 9.58570 25049 ft 444 kts 85°
2026-05-08 12:27 47.47101 9.63123 25365 ft 445 kts 94°
2026-05-08 12:27 47.46865 9.67690 25655 ft 447 kts 97°
2026-05-08 12:27 47.46603 9.72284 25977 ft 450 kts 97°
2026-05-08 12:28 47.46349 9.76906 26300 ft 452 kts 97°
2026-05-08 12:28 47.46101 9.81493 26625 ft 455 kts 97°
2026-05-08 12:28 47.45846 9.86167 26927 ft 458 kts 97°
2026-05-08 12:28 47.45584 9.90864 27227 ft 460 kts 98°
2026-05-08 12:29 47.45316 9.95585 27547 ft 463 kts 98°
2026-05-08 12:29 47.45042 10.00342 27850 ft 465 kts 98°
2026-05-08 12:29 47.44766 10.05118 28139 ft 468 kts 98°
2026-05-08 12:29 47.44488 10.09907 28427 ft 470 kts 98°
2026-05-08 12:30 47.44205 10.14729 28707 ft 471 kts 98°
2026-05-08 12:30 47.43836 10.19532 29002 ft 471 kts 104°
2026-05-08 12:30 47.43211 10.24290 29250 ft 473 kts 105°
2026-05-08 12:30 47.42571 10.29060 29522 ft 474 kts 105°
2026-05-08 12:31 47.41924 10.33848 29813 ft 476 kts 105°
2026-05-08 12:31 47.41075 10.38555 30046 ft 473 kts 115°
2026-05-08 12:31 47.39727 10.42948 30258 ft 468 kts 125°
2026-05-08 12:31 47.37931 10.46902 30397 ft 462 kts 134°
2026-05-08 12:32 47.35754 10.50349 30561 ft 456 kts 143°
2026-05-08 12:32 47.33275 10.53204 30709 ft 450 kts 153°
2026-05-08 12:32 47.30572 10.55471 30940 ft 445 kts 157°
2026-05-08 12:32 47.27848 10.57619 31165 ft 443 kts 158°
2026-05-08 12:33 47.25136 10.59765 31431 ft 442 kts 158°
2026-05-08 12:33 47.22435 10.61908 31765 ft 440 kts 158°
2026-05-08 12:33 47.19750 10.64036 32062 ft 438 kts 158°
2026-05-08 12:33 47.17060 10.66095 32404 ft 433 kts 162°
2026-05-08 12:34 47.14284 10.67706 32758 ft 427 kts 166°
2026-05-08 12:34 47.11507 10.69229 33077 ft 425 kts 166°
2026-05-08 12:34 47.08745 10.70742 33395 ft 423 kts 166°
2026-05-08 12:34 47.05995 10.72246 33744 ft 421 kts 165°
2026-05-08 12:35 47.03255 10.73741 33978 ft 420 kts 166°
2026-05-08 12:35 47.00527 10.75236 34249 ft 419 kts 165°
2026-05-08 12:35 46.97835 10.76743 34477 ft 420 kts 165°
2026-05-08 12:35 46.95109 10.78291 34654 ft 421 kts 165°
2026-05-08 12:36 46.92377 10.79846 34824 ft 422 kts 165°
2026-05-08 12:36 46.89642 10.81401 34964 ft 423 kts 165°
2026-05-08 12:36 46.86898 10.82955 35114 ft 424 kts 164°
2026-05-08 12:36 46.84146 10.84507 35305 ft 424 kts 164°
2026-05-08 12:37 46.81389 10.86057 35464 ft 425 kts 164°
2026-05-08 12:37 46.78692 10.87898 35597 ft 432 kts 155°
2026-05-08 12:37 46.76198 10.90427 35736 ft 441 kts 145°
2026-05-08 12:37 46.74002 10.93592 35859 ft 448 kts 137°
2026-05-08 12:38 46.71934 10.97006 36002 ft 450 kts 137°
2026-05-08 12:38 46.69862 11.00420 36142 ft 450 kts 137°
2026-05-08 12:38 46.67784 11.03836 36256 ft 451 kts 137°
2026-05-08 12:38 46.65699 11.07249 36391 ft 452 kts 137°
2026-05-08 12:39 46.63606 11.10661 36519 ft 452 kts 136°
2026-05-08 12:39 46.61514 11.14066 36644 ft 451 kts 136°
2026-05-08 12:39 46.59419 11.17474 36774 ft 452 kts 136°
2026-05-08 12:39 46.57323 11.20880 36920 ft 452 kts 136°
2026-05-08 12:40 46.55228 11.24284 37038 ft 453 kts 136°
2026-05-08 12:40 46.53125 11.27697 37003 ft 454 kts 136°
2026-05-08 12:40 46.48909 11.34520 36993 ft 454 kts 136°
2026-05-08 12:41 46.44678 11.41347 37001 ft 455 kts 136°
2026-05-08 12:41 46.40469 11.48125 37054 ft 455 kts 136°
2026-05-08 12:42 46.36229 11.54943 37058 ft 456 kts 136°
2026-05-08 12:42 46.31978 11.61754 37056 ft 456 kts 136°
2026-05-08 12:43 46.27719 11.68548 37059 ft 456 kts 137°
2026-05-08 12:43 46.23462 11.75339 37059 ft 456 kts 136°
2026-05-08 12:44 46.19202 11.82125 37067 ft 456 kts 137°
2026-05-08 12:44 46.14938 11.88892 37073 ft 456 kts 137°
2026-05-08 12:45 46.10662 11.95652 37074 ft 456 kts 137°
2026-05-08 12:45 46.06387 12.02397 37047 ft 456 kts 137°
2026-05-08 12:46 46.02120 12.09132 37051 ft 456 kts 137°
2026-05-08 12:46 45.97837 12.15869 37066 ft 456 kts 137°
2026-05-08 12:47 45.93578 12.22534 37070 ft 455 kts 137°
2026-05-08 12:47 45.89291 12.29232 37062 ft 456 kts 137°
2026-05-08 12:48 45.85114 12.36083 37064 ft 457 kts 135°
2026-05-08 12:48 45.81014 12.43049 37069 ft 457 kts 135°
2026-05-08 12:49 45.76900 12.49973 37062 ft 456 kts 135°
2026-05-08 12:49 45.72752 12.56829 37060 ft 455 kts 136°
2026-05-08 12:50 45.68598 12.63666 37047 ft 455 kts 136°
2026-05-08 12:50 45.64445 12.70495 37043 ft 455 kts 135°
2026-05-08 12:51 45.58222 12.80713 37047 ft 454 kts 135°
2026-05-08 12:52 45.54073 12.87506 37042 ft 454 kts 136°
2026-05-08 12:52 45.47844 12.97668 37031 ft 454 kts 136°
2026-05-08 12:53 45.43684 13.04428 37032 ft 454 kts 136°
2026-05-08 12:53 45.39546 13.11137 37028 ft 454 kts 136°
2026-05-08 12:54 45.35385 13.17881 37037 ft 454 kts 136°
2026-05-08 12:54 45.31219 13.24625 37046 ft 454 kts 136°
2026-05-08 12:55 45.27252 13.31629 37044 ft 457 kts 131°
2026-05-08 12:55 45.23556 13.38965 37048 ft 457 kts 129°
2026-05-08 12:56 45.19847 13.46292 37052 ft 456 kts 131°
2026-05-08 12:56 45.16052 13.53496 37040 ft 456 kts 131°
2026-05-08 12:57 45.12219 13.60660 37026 ft 456 kts 131°
2026-05-08 12:57 45.08397 13.67837 37029 ft 457 kts 131°
2026-05-08 12:58 45.04571 13.75016 37032 ft 457 kts 131°
2026-05-08 12:58 45.00741 13.82195 37035 ft 457 kts 131°
2026-05-08 12:59 44.96909 13.89358 37047 ft 457 kts 131°
2026-05-08 12:59 44.93068 13.96508 37055 ft 457 kts 131°
2026-05-08 13:00 44.89226 14.03644 37056 ft 457 kts 131°
2026-05-08 13:00 44.86032 14.09573 37033 ft 457 kts 131°
2026-05-08 13:01 44.82183 14.16705 37048 ft 457 kts 131°
2026-05-08 13:01 44.78323 14.23830 37039 ft 457 kts 132°
2026-05-08 13:02 44.74462 14.30935 37047 ft 457 kts 132°
2026-05-08 13:02 44.70597 14.38033 37055 ft 457 kts 132°
2026-05-08 13:03 44.66720 14.45133 37068 ft 458 kts 132°
2026-05-08 13:03 44.62844 14.52229 37048 ft 458 kts 131°
2026-05-08 13:04 44.58964 14.59314 37045 ft 458 kts 132°
2026-05-08 13:04 44.55098 14.66352 37043 ft 458 kts 132°
2026-05-08 13:05 44.51200 14.73423 37045 ft 459 kts 132°
2026-05-08 13:05 44.47297 14.80486 37043 ft 459 kts 132°
2026-05-08 13:06 44.43386 14.87542 37034 ft 459 kts 132°
2026-05-08 13:06 44.39468 14.94596 37026 ft 459 kts 132°
2026-05-08 13:07 44.35541 15.01646 37031 ft 459 kts 132°
2026-05-08 13:07 44.31607 15.08685 37032 ft 459 kts 132°
2026-05-08 13:08 44.27681 15.15713 37033 ft 459 kts 132°
2026-05-08 13:08 44.23740 15.22740 37038 ft 459 kts 132°
2026-05-08 13:09 44.19803 15.29749 37041 ft 459 kts 132°
2026-05-08 13:09 44.15863 15.36744 37041 ft 459 kts 132°
2026-05-08 13:10 44.11919 15.43732 37020 ft 459 kts 132°
2026-05-08 13:10 44.07999 15.50656 37023 ft 459 kts 132°
2026-05-08 13:11 44.04047 15.57631 37022 ft 459 kts 132°
2026-05-08 13:11 44.00090 15.64585 37024 ft 459 kts 132°
2026-05-08 13:12 43.96121 15.71535 37021 ft 459 kts 132°
2026-05-08 13:12 43.92156 15.78460 37027 ft 458 kts 132°
2026-05-08 13:13 43.88191 15.85387 37022 ft 458 kts 132°
2026-05-08 13:13 43.84224 15.92300 37022 ft 459 kts 132°
2026-05-08 13:14 43.80276 15.99171 37027 ft 459 kts 132°
2026-05-08 13:14 43.76288 16.06093 37022 ft 459 kts 132°
2026-05-08 13:15 43.72297 16.12985 37021 ft 459 kts 132°
2026-05-08 13:15 43.68298 16.19865 37029 ft 459 kts 132°
2026-05-08 13:16 43.64300 16.26740 37030 ft 459 kts 132°
2026-05-08 13:16 43.60303 16.33606 37029 ft 459 kts 132°
2026-05-08 13:17 43.56300 16.40469 37034 ft 459 kts 132°
2026-05-08 13:17 43.52293 16.47314 37037 ft 459 kts 132°
2026-05-08 13:18 43.48287 16.54145 37034 ft 458 kts 132°
2026-05-08 13:18 43.44278 16.60961 37030 ft 458 kts 132°
2026-05-08 13:19 43.40261 16.67769 37036 ft 458 kts 132°
2026-05-08 13:19 43.36248 16.74571 37026 ft 458 kts 132°
2026-05-08 13:20 43.32234 16.81360 37040 ft 458 kts 132°
2026-05-08 13:20 43.28238 16.88090 37041 ft 457 kts 132°
2026-05-08 13:21 43.24182 16.94891 37045 ft 457 kts 132°
2026-05-08 13:21 43.20185 17.01593 37042 ft 457 kts 133°
2026-05-08 13:22 43.16160 17.08331 37038 ft 457 kts 132°
2026-05-08 13:22 43.12135 17.15064 37051 ft 457 kts 132°
2026-05-08 13:23 43.08103 17.21786 37042 ft 457 kts 132°
2026-05-08 13:23 43.04064 17.28492 37052 ft 457 kts 132°
2026-05-08 13:24 43.00020 17.35202 37047 ft 457 kts 132°
2026-05-08 13:24 42.95968 17.41899 37039 ft 457 kts 133°
2026-05-08 13:25 42.91906 17.48590 37040 ft 458 kts 133°
2026-05-08 13:25 42.87848 17.55276 37050 ft 458 kts 133°
2026-05-08 13:26 42.83781 17.61953 37034 ft 458 kts 133°
2026-05-08 13:26 42.79707 17.68629 37040 ft 458 kts 133°
2026-05-08 13:27 42.75635 17.75293 37034 ft 458 kts 133°
2026-05-08 13:27 42.71559 17.81951 37036 ft 458 kts 133°
2026-05-08 13:28 42.67479 17.88598 37041 ft 458 kts 133°
2026-05-08 13:28 42.63426 17.95194 37040 ft 458 kts 133°
2026-05-08 13:29 42.59343 18.01821 37041 ft 458 kts 133°
2026-05-08 13:29 42.55246 18.08441 37031 ft 458 kts 133°
2026-05-08 13:30 42.51148 18.15051 37033 ft 458 kts 133°
2026-05-08 13:30 42.47040 18.21657 37037 ft 458 kts 133°
2026-05-08 13:31 42.42923 18.28252 37037 ft 458 kts 133°
2026-05-08 13:31 42.38810 18.34851 37036 ft 459 kts 133°
2026-05-08 13:32 42.34700 18.41440 37034 ft 459 kts 133°
2026-05-08 13:32 42.30575 18.48019 37013 ft 459 kts 133°
2026-05-08 13:33 42.26443 18.54597 37012 ft 460 kts 133°
2026-05-08 13:33 42.22250 18.61127 37015 ft 460 kts 135°
2026-05-08 13:34 42.17830 18.67349 37000 ft 459 kts 137°
2026-05-08 13:34 42.13324 18.73448 37008 ft 459 kts 137°
2026-05-08 13:35 42.08849 18.79601 37003 ft 460 kts 137°
2026-05-08 13:35 42.04405 18.85801 36990 ft 461 kts 137°
2026-05-08 13:36 41.99958 18.92022 36991 ft 462 kts 137°
2026-05-08 13:36 41.95491 18.98233 36994 ft 462 kts 137°
2026-05-08 13:37 41.91008 19.04434 36998 ft 463 kts 137°
2026-05-08 13:37 41.86521 19.10630 36996 ft 463 kts 137°
2026-05-08 13:38 41.82033 19.16820 36991 ft 463 kts 137°
2026-05-08 13:38 41.77545 19.22989 36990 ft 462 kts 137°
2026-05-08 13:39 41.73045 19.29163 37003 ft 462 kts 137°
2026-05-08 13:39 41.68583 19.35275 37003 ft 462 kts 137°
2026-05-08 13:40 41.64054 19.41463 37000 ft 462 kts 137°
2026-05-08 13:40 41.59583 19.47564 36978 ft 462 kts 137°
2026-05-08 13:41 41.55078 19.53696 36989 ft 462 kts 137°
2026-05-08 13:41 41.50568 19.59813 36976 ft 462 kts 137°
2026-05-08 13:42 41.46054 19.65925 36981 ft 463 kts 137°
2026-05-08 13:42 41.41538 19.72033 37008 ft 463 kts 137°
2026-05-08 13:43 41.37012 19.78140 37011 ft 463 kts 137°
2026-05-08 13:43 41.32479 19.84229 36995 ft 463 kts 137°
2026-05-08 13:44 41.27935 19.90324 36990 ft 464 kts 137°
2026-05-08 13:44 41.23393 19.96425 36977 ft 464 kts 137°
2026-05-08 13:45 41.18842 20.02512 36973 ft 465 kts 137°
2026-05-08 13:45 41.14316 20.08567 36978 ft 465 kts 137°
2026-05-08 13:46 41.09759 20.14649 36969 ft 465 kts 137°
2026-05-08 13:46 41.05184 20.20714 36988 ft 465 kts 138°
2026-05-08 13:47 41.00618 20.26771 36995 ft 465 kts 138°
2026-05-08 13:47 40.96053 20.32819 37001 ft 465 kts 138°
2026-05-08 13:48 40.91480 20.38861 36995 ft 464 kts 138°
2026-05-08 13:48 40.86907 20.44890 36993 ft 464 kts 138°
2026-05-08 13:49 40.82326 20.50911 37002 ft 464 kts 138°
2026-05-08 13:49 40.77751 20.56922 37009 ft 464 kts 138°
2026-05-08 13:50 40.73946 20.61913 37021 ft 464 kts 138°
2026-05-08 13:50 40.69365 20.67909 36996 ft 464 kts 138°
2026-05-08 13:51 40.64778 20.73897 36993 ft 464 kts 138°
2026-05-08 13:51 40.60179 20.79878 37004 ft 465 kts 138°
2026-05-08 13:52 40.55579 20.85864 36999 ft 466 kts 139°
2026-05-08 13:52 40.50969 20.91847 37007 ft 466 kts 139°
2026-05-08 13:53 40.46324 20.97775 37012 ft 465 kts 141°
2026-05-08 13:53 40.41480 21.03405 37009 ft 465 kts 143°
2026-05-08 13:54 40.36545 21.08912 37011 ft 466 kts 143°
2026-05-08 13:54 40.31635 21.14485 37005 ft 467 kts 143°
2026-05-08 13:55 40.26792 21.20064 37009 ft 467 kts 143°
2026-05-08 13:56 40.19476 21.28475 37016 ft 467 kts 143°
2026-05-08 13:56 40.14582 21.34057 37003 ft 467 kts 143°
2026-05-08 13:57 40.09680 21.39647 37011 ft 468 kts 143°
2026-05-08 13:57 40.04778 21.45230 37012 ft 468 kts 143°
2026-05-08 13:58 39.99864 21.50815 37011 ft 468 kts 143°
2026-05-08 13:58 39.94942 21.56384 37020 ft 469 kts 143°
2026-05-08 13:59 39.90007 21.61956 37008 ft 470 kts 144°
2026-05-08 13:59 39.85068 21.67529 37022 ft 470 kts 144°
2026-05-08 14:00 39.80152 21.73061 37019 ft 470 kts 144°
2026-05-08 14:00 39.75206 21.78625 37030 ft 470 kts 144°
2026-05-08 14:01 39.70254 21.84174 37018 ft 470 kts 145°
2026-05-08 14:01 39.65294 21.89710 36992 ft 470 kts 145°
2026-05-08 14:02 39.60474 21.95097 37005 ft 472 kts 145°
2026-05-08 14:02 39.55500 22.00655 37019 ft 472 kts 145°
2026-05-08 14:03 39.50481 22.06243 37031 ft 472 kts 145°
2026-05-08 14:03 39.45528 22.11753 37033 ft 472 kts 145°
2026-05-08 14:04 39.40502 22.17323 37010 ft 473 kts 145°
2026-05-08 14:04 39.35536 22.22810 36984 ft 473 kts 145°
2026-05-08 14:05 39.30525 22.28347 36997 ft 474 kts 145°
2026-05-08 14:05 39.25504 22.33881 37007 ft 475 kts 145°
2026-05-08 14:06 39.20478 22.39414 37014 ft 475 kts 145°
2026-05-08 14:06 39.15441 22.44952 37015 ft 475 kts 145°
2026-05-08 14:07 39.10407 22.50459 36981 ft 474 kts 145°
2026-05-08 14:07 39.05373 22.55949 36992 ft 475 kts 145°
2026-05-08 14:08 39.00338 22.61452 37003 ft 475 kts 145°
2026-05-08 14:08 38.95299 22.66950 37015 ft 475 kts 145°
2026-05-08 14:09 38.90249 22.72436 37020 ft 475 kts 146°
2026-05-08 14:09 38.85199 22.77906 37021 ft 475 kts 146°
2026-05-08 14:10 38.80143 22.83376 36995 ft 475 kts 146°
2026-05-08 14:10 38.75121 22.88804 37003 ft 476 kts 146°
2026-05-08 14:11 38.70058 22.94265 37013 ft 476 kts 146°
2026-05-08 14:11 38.64991 22.99722 37015 ft 476 kts 146°
2026-05-08 14:12 38.59916 23.05172 37015 ft 477 kts 146°
2026-05-08 14:12 38.54835 23.10623 36994 ft 477 kts 146°
2026-05-08 14:13 38.49748 23.16073 36998 ft 478 kts 147°
2026-05-08 14:13 38.44648 23.21523 37001 ft 478 kts 147°
2026-05-08 14:14 38.39538 23.26972 37010 ft 479 kts 147°
2026-05-08 14:14 38.34421 23.32417 37019 ft 479 kts 147°
2026-05-08 14:15 38.29299 23.37865 37028 ft 479 kts 147°
2026-05-08 14:15 38.24175 23.43302 37026 ft 480 kts 147°
2026-05-08 14:16 38.19083 23.48686 37048 ft 479 kts 147°
2026-05-08 14:16 38.13918 23.54140 37061 ft 480 kts 147°
2026-05-08 14:17 38.08810 23.59532 37065 ft 480 kts 147°
2026-05-08 14:17 38.03672 23.64936 37069 ft 480 kts 147°
2026-05-08 14:18 37.98538 23.70326 37045 ft 480 kts 147°
2026-05-08 14:18 37.93386 23.75725 37060 ft 481 kts 147°
2026-05-08 14:19 37.88334 23.81304 37064 ft 487 kts 138°
2026-05-08 14:19 37.83918 23.87885 37067 ft 491 kts 135°
2026-05-08 14:20 37.79513 23.94488 37068 ft 491 kts 136°
2026-05-08 14:20 37.77309 23.97779 36658 ft 493 kts 136°
2026-05-08 14:20 37.75060 24.01124 35456 ft 504 kts 136°
2026-05-08 14:20 37.72773 24.04517 34373 ft 511 kts 136°
2026-05-08 14:21 37.70462 24.07947 33304 ft 514 kts 136°
2026-05-08 14:21 37.68159 24.11378 32450 ft 511 kts 135°
2026-05-08 14:21 37.65871 24.14791 31657 ft 508 kts 135°
2026-05-08 14:21 37.63591 24.18187 30957 ft 505 kts 135°
2026-05-08 14:22 37.61331 24.21548 30294 ft 501 kts 135°
2026-05-08 14:22 37.59084 24.24884 29574 ft 497 kts 135°
2026-05-08 14:22 37.56826 24.28151 28891 ft 490 kts 139°
2026-05-08 14:22 37.54290 24.30938 28281 ft 477 kts 150°
2026-05-08 14:23 37.51541 24.33177 27652 ft 468 kts 154°
2026-05-08 14:23 37.48781 24.35340 27044 ft 464 kts 154°
2026-05-08 14:23 37.46048 24.37479 26455 ft 460 kts 154°
2026-05-08 14:23 37.43350 24.39592 25881 ft 456 kts 153°
2026-05-08 14:24 37.40671 24.41692 25299 ft 452 kts 153°
2026-05-08 14:24 37.38020 24.43772 24779 ft 447 kts 153°
2026-05-08 14:24 37.35392 24.45835 24246 ft 443 kts 153°
2026-05-08 14:24 37.32820 24.47851 23728 ft 439 kts 153°
2026-05-08 14:25 37.30239 24.49868 23144 ft 436 kts 153°
2026-05-08 14:25 37.27671 24.51874 22568 ft 432 kts 153°
2026-05-08 14:25 37.25124 24.53862 22034 ft 429 kts 153°
2026-05-08 14:25 37.22599 24.55829 21519 ft 426 kts 153°
2026-05-08 14:26 37.20090 24.57783 21009 ft 423 kts 153°
2026-05-08 14:26 37.17600 24.59721 20509 ft 420 kts 153°
2026-05-08 14:26 37.15126 24.61649 20019 ft 417 kts 153°
2026-05-08 14:26 37.12668 24.63564 19531 ft 414 kts 153°
2026-05-08 14:27 37.10227 24.65464 19066 ft 411 kts 153°
2026-05-08 14:27 37.07800 24.67350 18601 ft 409 kts 153°
2026-05-08 14:27 37.05390 24.69218 18096 ft 406 kts 153°
2026-05-08 14:27 37.02996 24.71073 17584 ft 403 kts 153°
2026-05-08 14:28 37.00617 24.72915 17090 ft 400 kts 153°
2026-05-08 14:28 36.98256 24.74741 16605 ft 397 kts 153°
2026-05-08 14:28 36.95915 24.76550 16139 ft 394 kts 153°
2026-05-08 14:28 36.93588 24.78349 15673 ft 392 kts 153°
2026-05-08 14:29 36.91280 24.80136 15216 ft 389 kts 153°
2026-05-08 14:29 36.88989 24.81913 14764 ft 386 kts 153°
2026-05-08 14:29 36.86715 24.83680 14304 ft 384 kts 153°
2026-05-08 14:29 36.84454 24.85435 13866 ft 381 kts 153°
2026-05-08 14:30 36.82208 24.87167 13370 ft 378 kts 153°
2026-05-08 14:30 36.79976 24.88886 12876 ft 376 kts 153°
2026-05-08 14:30 36.77757 24.90594 12385 ft 373 kts 153°
2026-05-08 14:30 36.75552 24.92292 11900 ft 371 kts 153°
2026-05-08 14:31 36.73374 24.93989 11415 ft 370 kts 150°
2026-05-08 14:31 36.71477 24.96118 10956 ft 375 kts 133°
2026-05-08 14:31 36.70132 24.98869 10741 ft 369 kts 115°
2026-05-08 14:32 36.68977 25.04884 10498 ft 346 kts 101°
2026-05-08 14:32 36.68524 25.07790 10260 ft 338 kts 101°
2026-05-08 14:32 36.68077 25.10647 9681 ft 334 kts 101°
2026-05-08 14:32 36.67637 25.13460 8991 ft 329 kts 101°
2026-05-08 14:33 36.67202 25.16246 8326 ft 325 kts 101°
2026-05-08 14:33 36.66774 25.18994 7695 ft 321 kts 101°
2026-05-08 14:33 36.66355 25.21699 7066 ft 316 kts 101°
2026-05-08 14:33 36.65939 25.24375 6393 ft 314 kts 102°
2026-05-08 14:34 36.65530 25.26991 6067 ft 302 kts 102°
2026-05-08 14:34 36.65128 25.29556 5964 ft 300 kts 102°
2026-05-08 14:34 36.64724 25.32115 5799 ft 302 kts 102°
2026-05-08 14:34 36.64129 25.34565 5298 ft 290 kts 120°
2026-05-08 14:35 36.62964 25.36511 4807 ft 274 kts 141°
2026-05-08 14:35 36.61428 25.37769 4300 ft 259 kts 160°
2026-05-08 14:35 36.59780 25.38560 3809 ft 249 kts 162°
2026-05-08 14:35 36.58180 25.39314 3327 ft 242 kts 162°
2026-05-08 14:36 36.56649 25.40037 3087 ft 225 kts 162°
2026-05-08 14:36 36.55219 25.40713 3022 ft 217 kts 162°
2026-05-08 14:36 36.53806 25.41377 2806 ft 217 kts 161°
2026-05-08 14:36 36.52434 25.42023 2522 ft 210 kts 161°
2026-05-08 14:37 36.51106 25.42651 2236 ft 198 kts 161°
2026-05-08 14:37 36.49860 25.43239 2016 ft 182 kts 161°
2026-05-08 14:37 36.48737 25.43767 1766 ft 165 kts 161°
2026-05-08 14:37 36.47714 25.44247 1557 ft 150 kts 161°
2026-05-08 14:38 36.46775 25.44689 1363 ft 140 kts 160°
2026-05-08 14:38 36.45873 25.45112 1172 ft 138 kts 160°
2026-05-08 14:38 36.44982 25.45530 996 ft 136 kts 160°
2026-05-08 14:38 36.44096 25.45946 817 ft 136 kts 159°
2026-05-08 14:39 36.43498 25.46221 691 ft 136 kts 159°
2026-05-08 14:39 36.42612 25.46635 475 ft 136 kts 158°
2026-05-08 14:39 36.41746 25.47061 312 ft 135 kts 159°
2026-05-08 14:39 36.40874 25.47467 121 ft 133 kts 159°
2026-05-08 14:40 36.40082 25.47841 86 ft 101 kts 159°
2026-05-08 14:40 36.39577 25.48077 67 ft 59 kts 160°
2026-05-08 14:40 36.39278 25.48220 61 ft 33 kts 159°
2026-05-08 14:40 36.39112 25.48296 59 ft 23 kts 160°
2026-05-08 14:41 36.39019 25.48273 52 ft 16 kts 252°
2026-05-08 14:41 36.39038 25.48163 58 ft 13 kts 341°
2026-05-08 14:41 36.39113 25.48128 58 ft 12 kts 340°
2026-05-08 14:41 36.39214 25.48082 62 ft 15 kts 338°
2026-05-08 14:42 36.39297 25.48041 64 ft 11 kts 340°
2026-05-08 14:42 36.39359 25.48012 66 ft 9 kts 339°
2026-05-08 14:42 36.39461 25.47961 71 ft 24 kts 336°
2026-05-08 14:42 36.39637 25.47878 83 ft 28 kts 339°
2026-05-08 14:43 36.39817 25.47796 86 ft 28 kts 338°
2026-05-08 14:43 36.39998 25.47707 88 ft 29 kts 339°
2026-05-08 14:43 36.40172 25.47626 88 ft 25 kts 339°
2026-05-08 14:43 36.40271 25.47563 89 ft 11 kts 283°
2026-05-08 14:44 36.40274 25.47484 90 ft 7 kts 302°
2026-05-08 14:44 36.40271 25.47435 89 ft 5 kts 249°
2026-05-08 14:44 36.40269 25.47426 90 ft 0 kts 249°